Flag for Gambia Weather past 2 weeks in Banjul, Gambia

Now
88 °F

Broken clouds.


Feels Like: 100 °F
Forecast: N/A
Wind: No wind

Location: Banjul / Yundum

Current Time: Sep 1, 2014 at 2:37:22 PM

Latest Report: Sep 1, 2014 at 2:00 PM


Visibility: N/A

Pressure: 29.89 "Hg

Humidity: 70%

Dew point: 77 °F

Location of BanjulLocation

Historic Weather in Banjul — Graph

°F

Banjul temperature yesterday

Maximum temperature yesterday: 86 °F (at 1:00 PM)
Minimum temperature yesterday: 72 °F (at 8:00 AM)
Average temperature yesterday: 78 °F

Past Weeks' High & Low Weather Summary

 TemperatureHumidityPressure
High90 °F (Aug 27, 3:00 PM)100% (Aug 17, 8:00 PM)29.98 "Hg (Aug 17, 8:00 PM)
Low72 °F (Aug 27, 8:00 PM)26% (Aug 21, 9:00 AM)29.77 "Hg (Aug 17, 5:00 PM)
Average80 °F88%29.88 "Hg
* Reported Aug 17 1:00 PM — Sep 1 1:00 PM, Banjul, Weather by CustomWeather, © 2014

Note: Actual official high and low records may vary slightly from our data, if they occured in-between our weather recording intervals... More about our weather records

Advertising

Banjul weather history for previous 24 hours

 ConditionsComfort  
Time TempWeatherWind HumidityBarometerVisibility
1:00 PM
Sep 1
86 °FBroken clouds.6 mph84%29.92 "HgN/A
12:00 PM84 °FBroken clouds.No wind79%29.92 "HgN/A
11:00 AM81 °FBroken clouds.7 mph89%29.92 "HgN/A
10:00 AM79 °FBroken clouds.No wind94%29.92 "HgN/A
9:00 AM77 °FBroken clouds.No wind100%29.92 "HgN/A
8:00 AM77 °FPartly sunny.No wind94%29.89 "HgN/A
7:00 AM75 °FPartly sunny.No wind100%29.86 "HgN/A
6:00 AM75 °FPassing clouds.No wind94%29.86 "HgN/A
5:00 AM75 °FPassing clouds.No wind100%29.83 "HgN/A
4:00 AM75 °FPassing clouds.No wind100%29.83 "HgN/A
3:00 AM75 °FPassing clouds.No wind100%29.83 "HgN/A
2:00 AM77 °FPassing clouds.7 mph94%29.86 "HgN/A
1:00 AM75 °FPassing clouds.10 mph100%29.86 "HgN/A
12:00 AM75 °FPartly cloudy.1 mph94%29.92 "HgN/A
11:00 PM
Aug 31
73 °FPartly cloudy.No wind100%29.92 "HgN/A
10:00 PM75 °FThunderstorms. Partly cloudy.No wind94%29.95 "HgN/A
9:00 PM75 °FThunderstorms. Partly cloudy.3 mph94%29.95 "HgN/A
8:00 PM77 °FThunderstorms. Partly cloudy.No wind94%29.92 "Hg6 mi
7:00 PM82 °FBroken clouds.6 mph84%29.92 "HgN/A
6:00 PM84 °FBroken clouds.No wind79%29.92 "HgN/A
5:00 PM84 °FLight rain. Broken clouds.2 mph74%29.89 "Hg6 mi
4:00 PM84 °FBroken clouds.6 mph74%29.89 "HgN/A
3:00 PM84 °FLight rain. Broken clouds.8 mph74%29.89 "Hg6 mi
2:00 PM86 °FScattered clouds.6 mph66%29.89 "HgN/A
Weather by CustomWeather, © 2014

See weather overviewHow to use our weather pages